Location: Arbon
(43.0005°N, 0.7472°E)
Time: 09:03:38
(UTC+00:00)

SR - Pass Details

Date: 27 November 2020
Orbit: 575 x 880 km, 66.7° (Epoch: 21 January)

Event Time Altitude Azimuth Distance (km) Brightness Sun altitude
Rises 17:47:17 0° 182° (S) 2,779 ? -14.8°
Reaches altitude 10° 17:49:40 10° 170° (S) 1,902 ? -15.2°
Maximum altitude 17:53:19 29° 111° (ESE) 1,126 ? -15.8°
Enters shadow 17:53:59 27° 94° (E) 1,168 ? -16.0°
Drops below altitude 10° 17:57:11 10° 51° (NE) 2,012 - -16.5°
Sets 17:59:46 0° 41° (NE) 2,973 - -17.0°
